Tracking 18980 objects as of 18-Feb-2018
HD Live streaming from Space Station
objects crossing your sky now

NOAA 16 DEB

Track NOAA 16 DEB now!
10-day predictions


NORAD ID: 41656
Int'l Code: 2000-055NV
Perigee: 848.4 km
Apogee: 869.9 km
Inclination: 98.9 °
Period: 102.0 minutes
Semi major axis: 7230 km
RCS: Unknown
Launch date: September 21, 2000
Source: United States (US)
Launch site: AIR FORCE WESTERN TEST RANGE (AFWTR)

Note: This is SATELLITE DEBRIS
aabbcc
Your satellite tracking list
Your tracking list is empty




NASA's NSSDC Master Catalog

Two Line Element Set (TLE):
1 41656U 00055NV  18046.98699064 +.00001159 +00000-0 +65475-3 0  9998
2 41656 098.9026 121.5448 0014882 120.4609 239.8035 14.12160767094297
Source of the keplerian elements: AFSPC